Time,TemperatureF,DewpointF,PressureIn,WindDirection,WindDirectionDegrees,WindSpeedMPH,WindSpeedGustMPH,Humidity,HourlyPrecipIn,Conditions,Clouds,dailyrainin,SoftwareType,DateUTC
2013-11-24 00:03:00,32.5,14.1,29.35,SW,226,3.8,4.0,46,0.00,,SKC,0.00,VWS V14.00,2013-11-24 05:03:00,
2013-11-24 00:08:00,32.2,14.2,29.35,NNE,16,5.9,5.9,47,0.00,,SKC,0.00,VWS V14.00,2013-11-24 05:08:00,
2013-11-24 00:10:00,32.2,14.2,29.35,East,90,4.8,4.9,47,0.00,,SKC,0.00,VWS V14.00,2013-11-24 05:10:00,
2013-11-24 00:18:00,31.8,12.9,29.35,NE,38,2.7,5.8,45,0.00,,SKC,0.00,VWS V14.00,2013-11-24 05:18:00,
2013-11-24 00:20:00,31.6,12.8,29.35,NE,44,4.3,5.8,45,0.00,,SKC,0.00,VWS V14.00,2013-11-24 05:20:00,
2013-11-24 00:28:00,31.3,12.4,29.35,NNE,19,0.0,5.8,45,0.00,,SKC,0.00,VWS V14.00,2013-11-24 05:28:00,
2013-11-24 00:33:00,31.1,12.2,29.35,NNE,21,3.2,6.3,45,0.00,,SKC,0.00,VWS V14.00,2013-11-24 05:33:00,
2013-11-24 00:38:00,30.9,12.1,29.35,NNW,348,0.0,6.3,45,0.00,,SKC,0.00,VWS V14.00,2013-11-24 05:38:00,
2013-11-24 00:40:00,30.9,12.6,29.35,North,357,3.8,6.3,46,0.00,,SKC,0.00,VWS V14.00,2013-11-24 05:40:00,
2013-11-24 00:48:00,30.6,11.8,29.38,NNE,28,0.0,5.8,45,0.00,,SKC,0.00,VWS V14.00,2013-11-24 05:48:00,
2013-11-24 00:50:00,30.6,11.8,29.38,NNE,28,0.0,5.8,45,0.00,,SKC,0.00,VWS V14.00,2013-11-24 05:50:00,
2013-11-24 00:58:00,30.2,11.9,29.38,NW,322,3.8,5.4,46,0.00,,SKC,0.00,VWS V14.00,2013-11-24 05:58:00,
2013-11-24 01:03:00,30.2,12.4,29.38,NW,324,0.0,3.1,47,0.00,,SKC,0.00,VWS V14.00,2013-11-24 06:03:00,
2013-11-24 01:09:00,30.0,12.2,29.38,NNE,21,0.0,4.0,47,0.00,,SKC,0.00,VWS V14.00,2013-11-24 06:09:00,
2013-11-24 01:14:00,29.8,12.1,29.38,North,357,0.0,4.0,47,0.00,,SKC,0.00,VWS V14.00,2013-11-24 06:14:00,
2013-11-24 01:19:00,29.8,12.1,29.38,NNE,23,0.0,4.0,47,0.00,,SKC,0.00,VWS V14.00,2013-11-24 06:19:00,
2013-11-24 01:24:00,29.7,11.9,29.38,NE,44,9.7,9.7,47,0.00,,SKC,0.00,VWS V14.00,2013-11-24 06:24:00,
2013-11-24 01:29:00,29.5,11.3,29.38,NNE,19,0.0,8.1,46,0.00,,SKC,0.00,VWS V14.00,2013-11-24 06:29:00,
2013-11-24 01:34:00,29.5,11.3,29.38,ENE,62,0.0,9.2,46,0.00,,SKC,0.00,VWS V14.00,2013-11-24 06:34:00,
2013-11-24 01:39:00,29.5,11.8,29.38,NE,46,0.0,9.2,47,0.00,,SKC,0.00,VWS V14.00,2013-11-24 06:39:00,
2013-11-24 01:44:00,29.3,12.1,29.38,NNE,29,0.0,0.0,48,0.00,,SKC,0.00,VWS V14.00,2013-11-24 06:44:00,
2013-11-24 01:49:00,29.1,11.9,29.38,NNE,27,4.8,4.8,48,0.00,,SKC,0.00,VWS V14.00,2013-11-24 06:49:00,
2013-11-24 01:54:00,28.9,12.2,29.38,ENE,64,0.0,0.0,49,0.00,,SKC,0.00,VWS V14.00,2013-11-24 06:54:00,
2013-11-24 01:59:00,28.8,12.5,29.38,NE,40,4.8,4.9,50,0.00,,SKC,0.00,VWS V14.00,2013-11-24 06:59:00,
2013-11-24 02:04:00,28.8,12.0,29.38,NE,36,0.0,0.0,49,0.00,,SKC,0.00,VWS V14.00,2013-11-24 07:04:00,
2013-11-24 02:09:00,28.8,12.0,29.38,NNE,17,0.0,4.0,49,0.00,,SKC,0.00,VWS V14.00,2013-11-24 07:09:00,
2013-11-24 02:14:00,28.8,12.0,29.38,NNE,26,0.0,0.0,49,0.00,,SKC,0.00,VWS V14.00,2013-11-24 07:14:00,
2013-11-24 02:19:00,28.6,11.4,29.38,ESE,121,0.0,0.0,48,0.00,,SKC,0.00,VWS V14.00,2013-11-24 07:19:00,
2013-11-24 02:24:00,28.6,11.9,29.38,ESE,111,0.0,0.0,49,0.00,,SKC,0.00,VWS V14.00,2013-11-24 07:24:00,
2013-11-24 02:29:00,28.4,11.2,29.38,NE,45,3.8,4.9,48,0.00,,SKC,0.00,VWS V14.00,2013-11-24 07:29:00,
2013-11-24 02:34:00,28.4,11.2,29.38,NE,45,4.3,4.3,48,0.00,,SKC,0.00,VWS V14.00,2013-11-24 07:34:00,
2013-11-24 02:39:00,28.2,11.1,29.38,NE,35,4.8,5.4,48,0.00,,SKC,0.00,VWS V14.00,2013-11-24 07:39:00,
2013-11-24 02:44:00,28.2,11.1,29.38,NW,310,0.0,4.0,48,0.00,,SKC,0.00,VWS V14.00,2013-11-24 07:44:00,
2013-11-24 02:49:00,28.0,10.4,29.38,East,79,4.8,5.4,47,0.00,,SKC,0.00,VWS V14.00,2013-11-24 07:49:00,
2013-11-24 02:54:00,27.9,10.3,29.38,East,90,0.0,3.6,47,0.00,,SKC,0.00,VWS V14.00,2013-11-24 07:54:00,
2013-11-24 02:59:00,27.9,9.8,29.38,North,8,0.0,4.9,46,0.00,,SKC,0.00,VWS V14.00,2013-11-24 07:59:00,
2013-11-24 03:04:00,27.7,9.1,29.38,NNE,31,0.0,6.3,45,0.00,,SKC,0.00,VWS V14.00,2013-11-24 08:04:00,
2013-11-24 03:09:00,27.7,9.6,29.38,North,8,5.9,6.3,46,0.00,,SKC,0.00,VWS V14.00,2013-11-24 08:09:00,
2013-11-24 03:14:00,27.5,9.4,29.38,North,357,0.0,4.0,46,0.00,,SKC,0.00,VWS V14.00,2013-11-24 08:14:00,
2013-11-24 03:19:00,27.3,9.8,29.41,NNE,33,0.0,4.0,47,0.00,,SKC,0.00,VWS V14.00,2013-11-24 08:19:00,
2013-11-24 03:24:00,27.1,9.6,29.41,NNE,27,0.0,0.0,47,0.00,,SKC,0.00,VWS V14.00,2013-11-24 08:24:00,
2013-11-24 03:29:00,27.0,9.4,29.41,NNE,29,0.0,3.6,47,0.00,,SKC,0.00,VWS V14.00,2013-11-24 08:29:00,
2013-11-24 03:34:00,27.0,9.4,29.41,NNE,30,0.0,3.6,47,0.00,,SKC,0.00,VWS V14.00,2013-11-24 08:34:00,
2013-11-24 03:39:00,27.0,8.9,29.41,North,11,0.0,5.4,46,0.00,,SKC,0.00,VWS V14.00,2013-11-24 08:39:00,
2013-11-24 03:44:00,27.0,8.9,29.41,NNW,341,0.0,5.4,46,0.00,,SKC,0.00,VWS V14.00,2013-11-24 08:44:00,
2013-11-24 03:49:00,26.8,9.3,29.41,NNE,31,2.7,9.2,47,0.00,,SKC,0.00,VWS V14.00,2013-11-24 08:49:00,
2013-11-24 03:54:00,26.8,8.8,29.41,North,349,0.0,3.6,46,0.00,,SKC,0.00,VWS V14.00,2013-11-24 08:54:00,
2013-11-24 03:59:00,26.6,9.1,29.41,North,357,0.0,3.6,47,0.00,,SKC,0.00,VWS V14.00,2013-11-24 08:59:00,
2013-11-24 04:04:00,26.6,9.1,29.41,NE,53,8.6,8.6,47,0.00,,SKC,0.00,VWS V14.00,2013-11-24 09:04:00,
2013-11-24 04:09:00,26.4,8.9,29.41,NNE,22,0.0,7.2,47,0.00,,SKC,0.00,VWS V14.00,2013-11-24 09:09:00,
2013-11-24 04:14:00,26.4,8.9,29.41,NE,50,6.4,6.4,47,0.00,,SKC,0.00,VWS V14.00,2013-11-24 09:14:00,
2013-11-24 04:19:00,26.4,9.4,29.41,SE,144,3.8,8.1,48,0.00,,SKC,0.00,VWS V14.00,2013-11-24 09:19:00,
2013-11-24 04:24:00,26.2,8.8,29.41,NNE,17,2.7,4.0,47,0.00,,SKC,0.00,VWS V14.00,2013-11-24 09:24:00,
2013-11-24 04:29:00,26.1,9.1,29.41,ESE,113,0.0,6.3,48,0.00,,SKC,0.00,VWS V14.00,2013-11-24 09:29:00,
2013-11-24 04:34:00,26.1,9.1,29.41,NE,44,2.7,5.8,48,0.00,,SKC,0.00,VWS V14.00,2013-11-24 09:34:00,
2013-11-24 04:39:00,25.9,9.4,29.41,ENE,73,2.7,5.8,49,0.00,,SKC,0.00,VWS V14.00,2013-11-24 09:39:00,
2013-11-24 04:44:00,25.9,9.4,29.41,NNW,344,4.3,4.3,49,0.00,,SKC,0.00,VWS V14.00,2013-11-24 09:44:00,
2013-11-24 04:49:00,25.9,9.8,29.41,NNE,14,2.7,4.9,50,0.00,,SKC,0.00,VWS V14.00,2013-11-24 09:49:00,
2013-11-24 04:54:00,25.9,9.8,29.41,NNW,338,0.0,3.1,50,0.00,,SKC,0.00,VWS V14.00,2013-11-24 09:54:00,
2013-11-24 04:59:00,25.7,9.6,29.41,NNE,25,0.0,3.1,50,0.00,,SKC,0.00,VWS V14.00,2013-11-24 09:59:00,
2013-11-24 05:04:00,25.5,9.0,29.41,NE,44,0.0,3.6,49,0.00,,SKC,0.00,VWS V14.00,2013-11-24 10:04:00,
2013-11-24 05:09:00,25.3,8.9,29.41,NNE,28,0.0,3.6,49,0.00,,SKC,0.00,VWS V14.00,2013-11-24 10:09:00,
2013-11-24 05:14:00,25.3,9.3,29.41,NNE,32,0.0,0.0,50,0.00,,SKC,0.00,VWS V14.00,2013-11-24 10:14:00,
2013-11-24 05:19:00,25.2,9.1,29.41,NE,48,0.0,0.0,50,0.00,,SKC,0.00,VWS V14.00,2013-11-24 10:19:00,
2013-11-24 05:24:00,25.2,9.6,29.41,NNE,31,0.0,0.0,51,0.00,,SKC,0.00,VWS V14.00,2013-11-24 10:24:00,
2013-11-24 05:29:00,25.3,9.3,29.41,NNW,333,4.3,5.4,50,0.00,,SKC,0.00,VWS V14.00,2013-11-24 10:29:00,
2013-11-24 05:34:00,25.3,9.3,29.44,NNE,27,0.0,4.0,50,0.00,,SKC,0.00,VWS V14.00,2013-11-24 10:34:00,
2013-11-24 05:39:00,25.2,9.1,29.44,SSW,203,0.0,4.0,50,0.00,,SKC,0.00,VWS V14.00,2013-11-24 10:39:00,
2013-11-24 05:44:00,25.2,9.1,29.44,NNE,32,0.0,2.7,50,0.00,,SKC,0.00,VWS V14.00,2013-11-24 10:44:00,
2013-11-24 05:49:00,25.0,9.0,29.44,NNE,33,4.8,4.8,50,0.00,,SKC,0.00,VWS V14.00,2013-11-24 10:49:00,
2013-11-24 05:54:00,24.8,8.8,29.44,NE,34,0.0,2.7,50,0.00,,SKC,0.00,VWS V14.00,2013-11-24 10:54:00,
2013-11-24 05:59:00,24.8,9.2,29.44,NNE,30,2.7,4.0,51,0.00,,SKC,0.00,VWS V14.00,2013-11-24 10:59:00,
2013-11-24 06:04:00,24.8,9.2,29.44,NE,55,0.0,3.6,51,0.00,,SKC,0.00,VWS V14.00,2013-11-24 11:04:00,
2013-11-24 06:09:00,24.6,8.6,29.44,NNE,14,0.0,5.8,50,0.00,,SKC,0.00,VWS V14.00,2013-11-24 11:09:00,
2013-11-24 06:14:00,24.6,9.1,29.44,NE,37,0.0,3.1,51,0.00,,SKC,0.00,VWS V14.00,2013-11-24 11:14:00,
2013-11-24 06:19:00,24.4,8.5,29.44,NNE,14,0.0,5.8,50,0.00,,SKC,0.00,VWS V14.00,2013-11-24 11:19:00,
2013-11-24 06:24:00,24.4,8.5,29.44,WNW,302,0.0,4.0,50,0.00,,SKC,0.00,VWS V14.00,2013-11-24 11:24:00,
2013-11-24 06:29:00,24.4,8.5,29.44,NE,41,0.0,4.0,50,0.00,,SKC,0.00,VWS V14.00,2013-11-24 11:29:00,
2013-11-24 06:34:00,24.4,8.5,29.47,NNE,21,0.0,5.4,50,0.00,,SKC,0.00,VWS V14.00,2013-11-24 11:34:00,
2013-11-24 06:40:00,24.3,8.3,29.47,NNE,15,0.0,5.4,50,0.00,,SKC,0.00,VWS V14.00,2013-11-24 11:40:00,
2013-11-24 06:45:00,24.3,8.8,29.47,North,350,0.0,4.0,51,0.00,,SKC,0.00,VWS V14.00,2013-11-24 11:45:00,
2013-11-24 06:50:00,24.4,9.4,29.47,NNE,19,3.2,4.0,52,0.00,,SKC,0.00,VWS V14.00,2013-11-24 11:50:00,
2013-11-24 06:55:00,24.3,8.8,29.47,NNE,19,0.0,3.6,51,0.00,,SKC,0.00,VWS V14.00,2013-11-24 11:55:00,
2013-11-24 07:00:00,24.3,8.8,29.47,North,2,0.0,3.6,51,0.00,,SKC,0.00,VWS V14.00,2013-11-24 12:00:00,
2013-11-24 07:05:00,24.3,9.2,29.47,NNE,17,3.8,4.0,52,0.00,,SKC,0.00,VWS V14.00,2013-11-24 12:05:00,
2013-11-24 07:10:00,24.1,8.6,29.47,NW,318,3.8,4.9,51,0.00,,SKC,0.00,VWS V14.00,2013-11-24 12:10:00,
2013-11-24 07:15:00,24.1,9.0,29.47,NNE,20,0.0,3.1,52,0.00,,SKC,0.00,VWS V14.00,2013-11-24 12:15:00,
2013-11-24 07:20:00,23.9,8.4,29.47,North,9,0.0,3.1,51,0.00,,SKC,0.00,VWS V14.00,2013-11-24 12:20:00,
2013-11-24 07:25:00,23.9,8.9,29.47,NNE,22,4.3,4.3,52,0.00,,SKC,0.00,VWS V14.00,2013-11-24 12:25:00,
2013-11-24 07:30:00,23.7,8.7,29.47,NNW,339,3.2,4.0,52,0.00,,SKC,0.00,VWS V14.00,2013-11-24 12:30:00,
2013-11-24 07:35:00,23.7,8.7,29.47,NNE,26,0.0,3.1,52,0.00,,SKC,0.00,VWS V14.00,2013-11-24 12:35:00,
2013-11-24 07:40:00,23.7,7.8,29.47,ENE,70,3.2,5.4,50,0.00,,SKC,0.00,VWS V14.00,2013-11-24 12:40:00,
2013-11-24 07:45:00,23.7,7.8,29.47,North,6,6.4,6.4,50,0.00,,SKC,0.00,VWS V14.00,2013-11-24 12:45:00,
2013-11-24 07:50:00,23.9,8.4,29.50,NNW,330,4.8,5.8,51,0.00,,SKC,0.00,VWS V14.00,2013-11-24 12:50:00,
2013-11-24 07:55:00,24.1,8.1,29.50,NNW,340,3.2,4.0,50,0.00,,SKC,0.00,VWS V14.00,2013-11-24 12:55:00,
2013-11-24 08:00:00,24.3,7.9,29.50,North,3,4.8,5.8,49,0.00,,SKC,0.00,VWS V14.00,2013-11-24 13:00:00,
2013-11-24 08:05:00,24.4,8.0,29.50,NNE,24,4.3,4.3,49,0.00,,SKC,0.00,VWS V14.00,2013-11-24 13:05:00,
2013-11-24 08:10:00,24.4,7.6,29.50,NNE,26,3.8,5.4,48,0.00,,SKC,0.00,VWS V14.00,2013-11-24 13:10:00,
2013-11-24 08:15:00,24.4,7.6,29.50,WNW,296,0.0,5.4,48,0.00,,SKC,0.00,VWS V14.00,2013-11-24 13:15:00,
2013-11-24 08:20:00,24.6,7.7,29.50,NNE,18,4.3,5.4,48,0.00,,SKC,0.00,VWS V14.00,2013-11-24 13:20:00,
2013-11-24 08:25:00,24.6,7.7,29.50,ENE,60,7.0,7.0,48,0.00,,SKC,0.00,VWS V14.00,2013-11-24 13:25:00,
2013-11-24 08:30:00,24.6,7.3,29.50,NE,36,5.4,6.3,47,0.00,,SKC,0.00,VWS V14.00,2013-11-24 13:30:00,
2013-11-24 08:35:00,24.8,7.4,29.50,NNW,340,3.8,5.4,47,0.00,,SKC,0.00,VWS V14.00,2013-11-24 13:35:00,
2013-11-24 08:40:00,25.2,7.8,29.50,NNE,20,4.3,6.3,47,0.00,,SKC,0.00,VWS V14.00,2013-11-24 13:40:00,
2013-11-24 08:45:00,25.3,7.5,29.50,North,349,0.0,5.4,46,0.00,,SKC,0.00,VWS V14.00,2013-11-24 13:45:00,
2013-11-24 08:50:00,25.5,7.6,29.50,NE,56,3.2,6.3,46,0.00,,SKC,0.00,VWS V14.00,2013-11-24 13:50:00,
2013-11-24 08:55:00,25.7,7.8,29.50,NNE,16,3.8,8.7,46,0.00,,SKC,0.00,VWS V14.00,2013-11-24 13:55:00,
2013-11-24 09:00:00,25.9,8.0,29.50,NE,48,0.0,8.7,46,0.00,,SKC,0.00,VWS V14.00,2013-11-24 14:00:00,
2013-11-24 09:05:00,26.1,7.6,29.53,NNE,19,7.0,8.1,45,0.00,,SKC,0.00,VWS V14.00,2013-11-24 14:05:00,
2013-11-24 09:10:00,26.2,7.8,29.53,NNE,31,0.0,8.1,45,0.00,,SKC,0.00,VWS V14.00,2013-11-24 14:10:00,
2013-11-24 09:15:00,26.6,8.1,29.53,North,357,3.8,4.0,45,0.00,,SKC,0.00,VWS V14.00,2013-11-24 14:15:00,
2013-11-24 09:20:00,26.8,7.8,29.53,ENE,59,3.2,6.3,44,0.00,,SKC,0.00,VWS V14.00,2013-11-24 14:20:00,
2013-11-24 09:25:00,27.0,7.5,29.53,NNE,25,4.3,8.7,43,0.00,,SKC,0.00,VWS V14.00,2013-11-24 14:25:00,
2013-11-24 09:30:00,27.0,7.5,29.53,NNE,14,4.3,8.7,43,0.00,,SKC,0.00,VWS V14.00,2013-11-24 14:30:00,
2013-11-24 09:35:00,27.0,7.5,29.53,South,189,4.3,8.7,43,0.00,,SKC,0.00,VWS V14.00,2013-11-24 14:35:00,
2013-11-24 09:40:00,27.3,7.8,29.53,North,0,3.2,8.7,43,0.00,,SKC,0.00,VWS V14.00,2013-11-24 14:40:00,
2013-11-24 09:45:00,27.5,7.9,29.53,NNE,32,0.0,4.0,43,0.00,,SKC,0.00,VWS V14.00,2013-11-24 14:45:00,
2013-11-24 09:50:00,27.7,8.1,29.50,NNW,330,0.0,5.8,43,0.00,,SKC,0.00,VWS V14.00,2013-11-24 14:50:00,
2013-11-24 09:55:00,28.0,8.4,29.50,NNE,18,3.2,4.0,43,0.00,,SKC,0.00,VWS V14.00,2013-11-24 14:55:00,
2013-11-24 10:00:00,28.2,8.1,29.50,NNE,13,3.2,6.3,42,0.00,,SKC,0.00,VWS V14.00,2013-11-24 15:00:00,
2013-11-24 10:05:00,28.4,8.2,29.53,North,7,4.3,8.3,42,0.00,,SKC,0.00,VWS V14.00,2013-11-24 15:05:00,
2013-11-24 10:10:00,28.6,7.9,29.53,SE,139,4.8,8.3,41,0.00,,SKC,0.00,VWS V14.00,2013-11-24 15:10:00,
2013-11-24 10:15:00,28.6,7.9,29.53,NNE,28,5.9,5.9,41,0.00,,SKC,0.00,VWS V14.00,2013-11-24 15:15:00,
2013-11-24 10:20:00,28.6,7.9,29.53,North,350,0.0,8.7,41,0.00,,SKC,0.00,VWS V14.00,2013-11-24 15:20:00,
2013-11-24 10:25:00,28.8,8.0,29.53,NNE,28,3.8,4.0,41,0.00,,SKC,0.00,VWS V14.00,2013-11-24 15:25:00,
2013-11-24 10:30:00,29.1,8.4,29.53,North,357,6.4,8.1,41,0.00,,SKC,0.00,VWS V14.00,2013-11-24 15:30:00,
2013-11-24 10:35:00,29.5,8.7,29.50,East,80,0.0,4.9,41,0.00,,SKC,0.00,VWS V14.00,2013-11-24 15:35:00,
2013-11-24 10:40:00,29.7,8.9,29.50,ENE,69,3.8,7.2,41,0.00,,SKC,0.00,VWS V14.00,2013-11-24 15:40:00,
2013-11-24 10:45:00,29.8,9.0,29.50,North,0,0.0,6.3,41,0.00,,SKC,0.00,VWS V14.00,2013-11-24 15:45:00,
2013-11-24 10:50:00,30.0,9.2,29.50,North,0,4.8,8.1,41,0.00,,SKC,0.00,VWS V14.00,2013-11-24 15:50:00,
2013-11-24 10:55:00,30.2,9.4,29.50,NNE,33,2.7,6.3,41,0.00,,SKC,0.00,VWS V14.00,2013-11-24 15:55:00,
2013-11-24 11:00:00,30.6,9.1,29.50,NNW,332,3.8,8.3,40,0.00,,SKC,0.00,VWS V14.00,2013-11-24 16:00:00,
2013-11-24 11:05:00,30.7,9.3,29.50,NNE,16,2.7,6.3,40,0.00,,SKC,0.00,VWS V14.00,2013-11-24 16:05:00,
2013-11-24 11:10:00,30.7,9.3,29.50,NNE,22,0.0,8.3,40,0.00,,SKC,0.00,VWS V14.00,2013-11-24 16:10:00,
2013-11-24 11:15:00,31.1,9.6,29.50,NNE,24,7.0,7.2,40,0.00,,SKC,0.00,VWS V14.00,2013-11-24 16:15:00,
2013-11-24 11:20:00,31.5,9.9,29.50,North,357,3.2,7.6,40,0.00,,SKC,0.00,VWS V14.00,2013-11-24 16:20:00,
2013-11-24 11:25:00,31.6,10.1,29.50,NNW,327,2.7,4.0,40,0.00,,SKC,0.00,VWS V14.00,2013-11-24 16:25:00,
2013-11-24 11:30:00,32.0,10.4,29.50,North,357,3.8,7.2,40,0.00,,SKC,0.00,VWS V14.00,2013-11-24 16:30:00,
2013-11-24 11:35:00,32.2,9.4,29.50,NNW,345,3.2,6.3,38,0.00,,SKC,0.00,VWS V14.00,2013-11-24 16:35:00,
2013-11-24 11:40:00,32.4,9.6,29.50,NW,322,0.0,6.3,38,0.00,,SKC,0.00,VWS V14.00,2013-11-24 16:40:00,
2013-11-24 11:45:00,32.5,9.8,29.50,NE,34,3.8,4.0,38,0.00,,SKC,0.00,VWS V14.00,2013-11-24 16:45:00,
2013-11-24 11:50:00,32.7,9.9,29.50,North,357,3.8,8.3,38,0.00,,SKC,0.00,VWS V14.00,2013-11-24 16:50:00,
2013-11-24 11:55:00,32.7,9.3,29.50,NE,36,0.0,4.9,37,0.00,,SKC,0.00,VWS V14.00,2013-11-24 16:55:00,
2013-11-24 12:00:00,33.1,9.7,29.50,North,1,3.2,6.7,37,0.00,,SKC,0.00,VWS V14.00,2013-11-24 17:00:00,
2013-11-24 12:05:00,33.4,9.4,29.50,NNE,14,3.2,4.9,36,0.00,,SKC,0.00,VWS V14.00,2013-11-24 17:05:00,
2013-11-24 12:11:00,33.6,8.9,29.50,NNE,16,3.8,6.3,35,0.00,,SKC,0.00,VWS V14.00,2013-11-24 17:11:00,
2013-11-24 12:16:00,33.6,9.5,29.50,NNW,344,2.7,4.0,36,0.00,,SKC,0.00,VWS V14.00,2013-11-24 17:16:00,
2013-11-24 12:21:00,34.2,9.4,29.47,NNE,26,3.8,4.9,35,0.00,,SKC,0.00,VWS V14.00,2013-11-24 17:21:00,
2013-11-24 12:26:00,34.3,8.9,29.47,NE,40,4.8,8.3,34,0.00,,SKC,0.00,VWS V14.00,2013-11-24 17:26:00,
2013-11-24 12:31:00,34.3,8.9,29.47,NNE,29,4.3,8.3,34,0.00,,SKC,0.00,VWS V14.00,2013-11-24 17:31:00,
2013-11-24 12:36:00,34.5,9.1,29.47,WNW,300,9.7,9.7,34,0.00,,SKC,0.00,VWS V14.00,2013-11-24 17:36:00,
2013-11-24 12:41:00,34.5,8.4,29.47,NNE,12,9.1,10.1,33,0.00,,SKC,0.00,VWS V14.00,2013-11-24 17:41:00,
2013-11-24 12:46:00,34.9,9.4,29.47,ENE,62,4.3,7.6,34,0.00,,SKC,0.00,VWS V14.00,2013-11-24 17:46:00,
2013-11-24 12:51:00,35.1,8.9,29.47,NNW,342,4.8,7.6,33,0.00,,SKC,0.00,VWS V14.00,2013-11-24 17:51:00,
2013-11-24 12:56:00,35.4,9.2,29.47,NNW,339,3.2,7.2,33,0.00,,SKC,0.00,VWS V14.00,2013-11-24 17:56:00,
2013-11-24 13:01:00,35.6,9.4,29.47,West,272,0.0,7.2,33,0.00,,SKC,0.00,VWS V14.00,2013-11-24 18:01:00,
2013-11-24 13:06:00,35.8,8.8,29.47,NNE,15,3.2,5.4,32,0.00,,SKC,0.00,VWS V14.00,2013-11-24 18:06:00,
2013-11-24 13:11:00,36.0,9.0,29.47,NW,308,2.7,6.7,32,0.00,,SKC,0.00,VWS V14.00,2013-11-24 18:11:00,
2013-11-24 13:16:00,36.1,8.4,29.47,North,1,3.2,10.1,31,0.00,,SKC,0.00,VWS V14.00,2013-11-24 18:16:00,
2013-11-24 13:21:00,36.3,8.6,29.47,NE,55,7.5,10.1,31,0.00,,SKC,0.00,VWS V14.00,2013-11-24 18:21:00,
2013-11-24 13:26:00,36.1,8.4,29.47,SE,127,4.8,8.1,31,0.00,,SKC,0.00,VWS V14.00,2013-11-24 18:26:00,
2013-11-24 13:31:00,36.1,8.4,29.47,WNW,291,4.8,4.8,31,0.00,,SKC,0.00,VWS V14.00,2013-11-24 18:31:00,
2013-11-24 13:36:00,36.3,8.6,29.44,NE,49,4.8,8.7,31,0.00,,SKC,0.00,VWS V14.00,2013-11-24 18:36:00,
2013-11-24 13:41:00,36.9,9.1,29.44,NW,316,0.0,2.7,31,0.00,,SKC,0.00,VWS V14.00,2013-11-24 18:41:00,
2013-11-24 13:46:00,37.0,9.2,29.44,NNE,33,3.2,6.3,31,0.00,,SKC,0.00,VWS V14.00,2013-11-24 18:46:00,
2013-11-24 13:51:00,37.4,9.5,29.44,WNW,291,0.0,2.2,31,0.00,,SKC,0.00,VWS V14.00,2013-11-24 18:51:00,
2013-11-24 13:56:00,37.6,9.0,29.44,NNE,27,6.4,7.6,30,0.00,,SKC,0.00,VWS V14.00,2013-11-24 18:56:00,
2013-11-24 14:01:00,37.6,9.0,29.44,ENE,65,4.8,4.8,30,0.00,,SKC,0.00,VWS V14.00,2013-11-24 19:01:00,
2013-11-24 14:06:00,37.6,9.0,29.41,NNE,20,4.3,7.2,30,0.00,,SKC,0.00,VWS V14.00,2013-11-24 19:06:00,
2013-11-24 14:11:00,37.2,8.6,29.41,North,5,3.2,3.6,30,0.00,,SKC,0.00,VWS V14.00,2013-11-24 19:11:00,
2013-11-24 14:16:00,37.0,8.5,29.41,NW,326,3.2,7.6,30,0.00,,SKC,0.00,VWS V14.00,2013-11-24 19:16:00,
2013-11-24 14:21:00,37.0,8.5,29.41,NNE,30,3.2,6.3,30,0.00,,SKC,0.00,VWS V14.00,2013-11-24 19:21:00,
2013-11-24 14:26:00,37.0,8.5,29.41,NE,48,3.8,6.3,30,0.00,,SKC,0.00,VWS V14.00,2013-11-24 19:26:00,
2013-11-24 14:31:00,36.9,8.3,29.41,NNE,21,5.4,5.4,30,0.00,,SKC,0.00,VWS V14.00,2013-11-24 19:31:00,
2013-11-24 14:36:00,36.9,8.3,29.41,NW,322,4.8,8.7,30,0.00,,SKC,0.00,VWS V14.00,2013-11-24 19:36:00,
2013-11-24 14:41:00,36.7,8.2,29.41,NNE,33,3.8,5.4,30,0.00,,SKC,0.00,VWS V14.00,2013-11-24 19:41:00,
2013-11-24 14:46:00,36.7,8.2,29.41,NE,45,4.3,8.3,30,0.00,,SKC,0.00,VWS V14.00,2013-11-24 19:46:00,
2013-11-24 14:51:00,36.7,8.2,29.41,ENE,73,6.4,6.4,30,0.00,,SKC,0.00,VWS V14.00,2013-11-24 19:51:00,
2013-11-24 14:56:00,36.3,7.9,29.41,NW,307,3.8,9.6,30,0.00,,SKC,0.00,VWS V14.00,2013-11-24 19:56:00,
2013-11-24 15:01:00,36.3,7.9,29.41,NNE,33,3.2,5.4,30,0.00,,SKC,0.00,VWS V14.00,2013-11-24 20:01:00,
2013-11-24 15:06:00,36.3,7.9,29.41,WNW,295,3.8,6.7,30,0.00,,SKC,0.00,VWS V14.00,2013-11-24 20:06:00,
2013-11-24 15:11:00,36.3,7.9,29.41,WNW,301,4.3,4.9,30,0.00,,SKC,0.00,VWS V14.00,2013-11-24 20:11:00,
2013-11-24 15:16:00,36.1,7.7,29.41,North,0,2.7,5.4,30,0.00,,SKC,0.00,VWS V14.00,2013-11-24 20:16:00,
2013-11-24 15:21:00,36.0,7.6,29.41,NNE,13,3.2,3.2,30,0.00,,SKC,0.00,VWS V14.00,2013-11-24 20:21:00,
2013-11-24 15:26:00,35.8,7.4,29.41,NNE,18,6.4,6.4,30,0.00,,SKC,0.00,VWS V14.00,2013-11-24 20:26:00,
2013-11-24 15:31:00,35.6,7.2,29.41,North,0,0.0,2.2,30,0.00,,SKC,0.00,VWS V14.00,2013-11-24 20:31:00,
2013-11-24 15:36:00,35.6,7.2,29.41,NE,37,7.0,7.0,30,0.00,,SKC,0.00,VWS V14.00,2013-11-24 20:36:00,
2013-11-24 15:41:00,35.6,7.2,29.41,ENE,63,4.8,7.6,30,0.00,,SKC,0.00,VWS V14.00,2013-11-24 20:41:00,
2013-11-24 15:46:00,35.4,7.1,29.41,North,11,3.2,7.6,30,0.00,,SKC,0.00,VWS V14.00,2013-11-24 20:46:00,
2013-11-24 15:51:00,35.4,7.1,29.41,ENE,78,3.8,3.8,30,0.00,,SKC,0.00,VWS V14.00,2013-11-24 20:51:00,
2013-11-24 15:56:00,35.4,7.1,29.41,NE,36,3.8,6.7,30,0.00,,SKC,0.00,VWS V14.00,2013-11-24 20:56:00,
2013-11-24 16:01:00,35.4,7.1,29.41,NE,36,3.8,4.0,30,0.00,,SKC,0.00,VWS V14.00,2013-11-24 21:01:00,
2013-11-24 16:06:00,35.4,7.1,29.41,NNE,17,4.3,7.6,30,0.00,,SKC,0.00,VWS V14.00,2013-11-24 21:06:00,
2013-11-24 16:11:00,35.2,6.9,29.41,North,357,3.8,3.8,30,0.00,,SKC,0.00,VWS V14.00,2013-11-24 21:11:00,
2013-11-24 16:16:00,35.2,6.9,29.41,NNE,21,3.8,4.0,30,0.00,,SKC,0.00,VWS V14.00,2013-11-24 21:16:00,
2013-11-24 16:21:00,35.1,6.8,29.41,North,9,0.0,4.0,30,0.00,,SKC,0.00,VWS V14.00,2013-11-24 21:21:00,
2013-11-24 16:26:00,34.9,6.6,29.41,NNE,23,3.2,6.3,30,0.00,,SKC,0.00,VWS V14.00,2013-11-24 21:26:00,
2013-11-24 16:31:00,34.7,6.4,29.41,NNE,22,4.8,4.8,30,0.00,,SKC,0.00,VWS V14.00,2013-11-24 21:31:00,
2013-11-24 16:36:00,34.5,6.3,29.41,North,9,6.4,6.4,30,0.00,,SKC,0.00,VWS V14.00,2013-11-24 21:36:00,
2013-11-24 16:41:00,34.5,6.3,29.41,NNE,15,0.0,2.7,30,0.00,,SKC,0.00,VWS V14.00,2013-11-24 21:41:00,
2013-11-24 16:46:00,34.3,6.1,29.41,North,9,3.2,8.1,30,0.00,,SKC,0.00,VWS V14.00,2013-11-24 21:46:00,
2013-11-24 16:51:00,34.3,6.1,29.41,East,89,3.8,4.0,30,0.00,,SKC,0.00,VWS V14.00,2013-11-24 21:51:00,
2013-11-24 16:56:00,34.2,6.7,29.41,NNE,17,0.0,4.0,31,0.00,,SKC,0.00,VWS V14.00,2013-11-24 21:56:00,
2013-11-24 17:01:00,34.0,5.8,29.41,North,353,0.0,8.1,30,0.00,,SKC,0.00,VWS V14.00,2013-11-24 22:01:00,
2013-11-24 17:06:00,34.0,6.5,29.41,NE,35,2.7,8.1,31,0.00,,SKC,0.00,VWS V14.00,2013-11-24 22:06:00,
2013-11-24 17:11:00,33.8,5.7,29.41,WNW,292,2.7,3.6,30,0.00,,SKC,0.00,VWS V14.00,2013-11-24 22:11:00,
2013-11-24 17:16:00,33.6,6.2,29.41,NE,38,0.0,3.6,31,0.00,,SKC,0.00,VWS V14.00,2013-11-24 22:16:00,
2013-11-24 17:22:00,33.4,6.1,29.41,NNE,16,0.0,3.6,31,0.00,,SKC,0.00,VWS V14.00,2013-11-24 22:22:00,
2013-11-24 17:27:00,33.3,5.9,29.41,NNE,15,0.0,7.2,31,0.00,,SKC,0.00,VWS V14.00,2013-11-24 22:27:00,
2013-11-24 17:32:00,32.9,5.6,29.41,NE,37,0.0,3.1,31,0.00,,SKC,0.00,VWS V14.00,2013-11-24 22:32:00,
2013-11-24 17:37:00,32.7,5.4,29.41,NE,35,0.0,3.1,31,0.00,,SKC,0.00,VWS V14.00,2013-11-24 22:37:00,
2013-11-24 17:42:00,32.5,5.3,29.41,NNE,13,0.0,0.0,31,0.00,,SKC,0.00,VWS V14.00,2013-11-24 22:42:00,
2013-11-24 17:47:00,32.4,5.1,29.41,NNE,23,0.0,3.6,31,0.00,,SKC,0.00,VWS V14.00,2013-11-24 22:47:00,
2013-11-24 17:52:00,32.2,5.0,29.41,North,357,3.2,4.0,31,0.00,,SKC,0.00,VWS V14.00,2013-11-24 22:52:00,
2013-11-24 17:57:00,32.2,5.0,29.41,NNE,25,0.0,4.0,31,0.00,,SKC,0.00,VWS V14.00,2013-11-24 22:57:00,
2013-11-24 18:02:00,32.2,5.0,29.41,NNE,28,0.0,0.0,31,0.00,,SKC,0.00,VWS V14.00,2013-11-24 23:02:00,
2013-11-24 18:07:00,32.0,4.8,29.41,NE,47,0.0,2.7,31,0.00,,SKC,0.00,VWS V14.00,2013-11-24 23:07:00,
2013-11-24 18:12:00,31.8,4.6,29.41,NE,34,0.0,0.0,31,0.00,,SKC,0.00,VWS V14.00,2013-11-24 23:12:00,
2013-11-24 18:17:00,31.5,5.0,29.41,NNE,33,0.0,0.0,32,0.00,,SKC,0.00,VWS V14.00,2013-11-24 23:17:00,
2013-11-24 18:22:00,31.3,4.9,29.44,NNE,33,0.0,0.0,32,0.00,,SKC,0.00,VWS V14.00,2013-11-24 23:22:00,
2013-11-24 18:27:00,31.1,4.7,29.44,NNE,33,0.0,0.0,32,0.00,,SKC,0.00,VWS V14.00,2013-11-24 23:27:00,
2013-11-24 18:32:00,31.1,4.7,29.44,NNE,17,0.0,0.0,32,0.00,,SKC,0.00,VWS V14.00,2013-11-24 23:32:00,
2013-11-24 18:37:00,31.1,4.7,29.44,NNE,32,0.0,2.7,32,0.00,,SKC,0.00,VWS V14.00,2013-11-24 23:37:00,
2013-11-24 18:42:00,31.1,4.7,29.44,NNE,18,0.0,0.0,32,0.00,,SKC,0.00,VWS V14.00,2013-11-24 23:42:00,
2013-11-24 18:47:00,30.9,4.5,29.44,NNE,30,0.0,0.0,32,0.00,,SKC,0.00,VWS V14.00,2013-11-24 23:47:00,
2013-11-24 18:52:00,30.7,5.1,29.44,NNE,30,0.0,0.0,33,0.00,,SKC,0.00,VWS V14.00,2013-11-24 23:52:00,
2013-11-24 18:57:00,30.4,4.7,29.44,NNE,30,0.0,0.0,33,0.00,,SKC,0.00,VWS V14.00,2013-11-24 23:57:00,
2013-11-24 19:02:00,30.2,5.2,29.44,NNE,31,0.0,0.0,34,0.00,,SKC,0.00,VWS V14.00,2013-11-25 00:02:00,
2013-11-24 19:07:00,30.0,5.1,29.44,NNE,30,0.0,0.0,34,0.00,,SKC,0.00,VWS V14.00,2013-11-25 00:07:00,
2013-11-24 19:12:00,30.0,5.7,29.44,NNE,30,0.0,0.0,35,0.00,,SKC,0.00,VWS V14.00,2013-11-25 00:12:00,
2013-11-24 19:17:00,29.8,5.5,29.44,NNE,30,0.0,0.0,35,0.00,,SKC,0.00,VWS V14.00,2013-11-25 00:17:00,
2013-11-24 19:22:00,29.7,5.4,29.44,NE,39,0.0,0.0,35,0.00,,SKC,0.00,VWS V14.00,2013-11-25 00:22:00,
2013-11-24 19:27:00,29.5,6.4,29.44,NE,39,0.0,0.0,37,0.00,,SKC,0.00,VWS V14.00,2013-11-25 00:27:00,
2013-11-24 19:32:00,29.1,6.7,29.44,NE,39,0.0,0.0,38,0.00,,SKC,0.00,VWS V14.00,2013-11-25 00:32:00,
2013-11-24 19:37:00,29.1,6.1,29.44,NE,46,0.0,0.0,37,0.00,,SKC,0.00,VWS V14.00,2013-11-25 00:37:00,
2013-11-24 19:42:00,29.3,6.3,29.44,NE,34,0.0,4.0,37,0.00,,SKC,0.00,VWS V14.00,2013-11-25 00:42:00,
2013-11-24 19:47:00,29.5,5.8,29.41,NNE,24,0.0,4.0,36,0.00,,SKC,0.00,VWS V14.00,2013-11-25 00:47:00,
2013-11-24 19:52:00,29.5,5.2,29.41,NNE,17,0.0,0.0,35,0.00,,SKC,0.00,VWS V14.00,2013-11-25 00:52:00,
2013-11-24 19:57:00,29.5,5.2,29.41,NE,50,0.0,4.9,35,0.00,,SKC,0.00,VWS V14.00,2013-11-25 00:57:00,
2013-11-24 20:02:00,29.5,5.2,29.41,NNE,28,0.0,0.0,35,0.00,,SKC,0.00,VWS V14.00,2013-11-25 01:02:00,
2013-11-24 20:07:00,29.5,5.2,29.41,NNE,19,0.0,0.0,35,0.00,,SKC,0.00,VWS V14.00,2013-11-25 01:07:00,
2013-11-24 20:12:00,29.5,5.2,29.41,NE,39,0.0,4.0,35,0.00,,SKC,0.00,VWS V14.00,2013-11-25 01:12:00,
2013-11-24 20:17:00,29.5,5.2,29.41,NNE,27,3.8,4.0,35,0.00,,SKC,0.00,VWS V14.00,2013-11-25 01:17:00,
2013-11-24 20:22:00,29.5,5.2,29.41,NNE,27,0.0,4.0,35,0.00,,SKC,0.00,VWS V14.00,2013-11-25 01:22:00,
2013-11-24 20:27:00,29.3,5.1,29.41,NNE,21,0.0,4.0,35,0.00,,SKC,0.00,VWS V14.00,2013-11-25 01:27:00,
2013-11-24 20:32:00,29.1,4.9,29.41,NNE,21,0.0,0.0,35,0.00,,SKC,0.00,VWS V14.00,2013-11-25 01:32:00,
2013-11-24 20:37:00,28.8,4.6,29.41,NNE,21,0.0,0.0,35,0.00,,SKC,0.00,VWS V14.00,2013-11-25 01:37:00,
2013-11-24 20:42:00,28.8,4.6,29.41,NNE,21,0.0,0.0,35,0.00,,SKC,0.00,VWS V14.00,2013-11-25 01:42:00,
2013-11-24 20:47:00,28.6,4.4,29.41,NNE,21,0.0,0.0,35,0.00,,SKC,0.00,VWS V14.00,2013-11-25 01:47:00,
2013-11-24 20:52:00,28.6,5.0,29.41,NNE,22,0.0,0.0,36,0.00,,SKC,0.00,VWS V14.00,2013-11-25 01:52:00,
2013-11-24 20:57:00,28.6,4.4,29.41,NNE,21,0.0,0.0,35,0.00,,SKC,0.00,VWS V14.00,2013-11-25 01:57:00,
2013-11-24 21:02:00,28.4,4.9,29.41,NNE,26,0.0,0.0,36,0.00,,SKC,0.00,VWS V14.00,2013-11-25 02:02:00,
2013-11-24 21:07:00,28.2,4.7,29.41,NNE,24,0.0,0.0,36,0.00,,SKC,0.00,VWS V14.00,2013-11-25 02:07:00,
2013-11-24 21:12:00,28.0,4.5,29.41,NE,37,0.0,0.0,36,0.00,,SKC,0.00,VWS V14.00,2013-11-25 02:12:00,
2013-11-24 21:17:00,28.0,4.5,29.41,NNE,26,0.0,3.6,36,0.00,,SKC,0.00,VWS V14.00,2013-11-25 02:17:00,
2013-11-24 21:22:00,28.0,4.5,29.41,NNE,27,2.7,2.7,36,0.00,,SKC,0.00,VWS V14.00,2013-11-25 02:22:00,
2013-11-24 21:27:00,28.0,4.5,29.41,NNE,20,0.0,3.6,36,0.00,,SKC,0.00,VWS V14.00,2013-11-25 02:27:00,
2013-11-24 21:32:00,28.0,4.5,29.41,NE,49,0.0,0.0,36,0.00,,SKC,0.00,VWS V14.00,2013-11-25 02:32:00,
2013-11-24 21:37:00,28.0,4.5,29.41,North,6,0.0,3.6,36,0.00,,SKC,0.00,VWS V14.00,2013-11-25 02:37:00,
2013-11-24 21:42:00,28.2,4.7,29.41,NNE,22,4.8,4.8,36,0.00,,SKC,0.00,VWS V14.00,2013-11-25 02:42:00,
2013-11-24 21:47:00,28.2,4.7,29.41,North,357,0.0,4.0,36,0.00,,SKC,0.00,VWS V14.00,2013-11-25 02:47:00,
2013-11-24 21:52:00,28.0,5.1,29.41,NNE,14,0.0,0.0,37,0.00,,SKC,0.00,VWS V14.00,2013-11-25 02:52:00,
2013-11-24 21:57:00,27.9,5.0,29.41,North,1,0.0,2.7,37,0.00,,SKC,0.00,VWS V14.00,2013-11-25 02:57:00,
2013-11-24 22:02:00,27.9,5.0,29.41,North,1,0.0,0.0,37,0.00,,SKC,0.00,VWS V14.00,2013-11-25 03:02:00,
2013-11-24 22:07:00,27.9,5.0,29.41,NE,56,0.0,0.0,37,0.00,,SKC,0.00,VWS V14.00,2013-11-25 03:07:00,
2013-11-24 22:12:00,27.9,5.0,29.41,NE,37,0.0,2.2,37,0.00,,SKC,0.00,VWS V14.00,2013-11-25 03:12:00,
2013-11-24 22:17:00,27.9,5.0,29.41,NE,37,0.0,2.2,37,0.00,,SKC,0.00,VWS V14.00,2013-11-25 03:17:00,
2013-11-24 22:22:00,27.7,4.8,29.41,NE,37,0.0,0.0,37,0.00,,SKC,0.00,VWS V14.00,2013-11-25 03:22:00,
2013-11-24 22:27:00,27.5,5.2,29.41,NE,37,0.0,0.0,38,0.00,,SKC,0.00,VWS V14.00,2013-11-25 03:27:00,
2013-11-24 22:32:00,27.5,4.7,29.41,NE,54,0.0,0.0,37,0.00,,SKC,0.00,VWS V14.00,2013-11-25 03:32:00,
2013-11-24 22:37:00,27.5,5.2,29.41,NE,54,0.0,0.0,38,0.00,,SKC,0.00,VWS V14.00,2013-11-25 03:37:00,
2013-11-24 22:42:00,27.5,5.2,29.41,NE,53,0.0,0.0,38,0.00,,SKC,0.00,VWS V14.00,2013-11-25 03:42:00,
2013-11-24 22:48:00,27.5,5.2,29.41,NE,54,0.0,0.0,38,0.00,,SKC,0.00,VWS V14.00,2013-11-25 03:48:00,
2013-11-24 22:53:00,27.5,5.2,29.41,NE,53,0.0,0.0,38,0.00,,SKC,0.00,VWS V14.00,2013-11-25 03:53:00,
2013-11-24 22:58:00,27.3,5.1,29.41,NE,54,0.0,0.0,38,0.00,,SKC,0.00,VWS V14.00,2013-11-25 03:58:00,
2013-11-24 23:03:00,27.3,5.6,29.41,NE,53,0.0,0.0,39,0.00,,SKC,0.00,VWS V14.00,2013-11-25 04:03:00,
2013-11-24 23:08:00,27.3,5.6,29.41,NE,54,0.0,0.0,39,0.00,,SKC,0.00,VWS V14.00,2013-11-25 04:08:00,
2013-11-24 23:13:00,27.1,6.0,29.41,NE,54,0.0,0.0,40,0.00,,SKC,0.00,VWS V14.00,2013-11-25 04:13:00,
2013-11-24 23:18:00,27.1,6.0,29.41,NE,53,0.0,0.0,40,0.00,,SKC,0.00,VWS V14.00,2013-11-25 04:18:00,
2013-11-24 23:23:00,27.0,5.9,29.41,NE,54,0.0,0.0,40,0.00,,SKC,0.00,VWS V14.00,2013-11-25 04:23:00,
2013-11-24 23:28:00,27.0,6.4,29.41,NE,53,0.0,0.0,41,0.00,,SKC,0.00,VWS V14.00,2013-11-25 04:28:00,
2013-11-24 23:33:00,27.0,6.4,29.41,NE,54,0.0,0.0,41,0.00,,SKC,0.00,VWS V14.00,2013-11-25 04:33:00,
2013-11-24 23:38:00,27.0,6.4,29.41,NE,54,0.0,0.0,41,0.00,,SKC,0.00,VWS V14.00,2013-11-25 04:38:00,
2013-11-24 23:43:00,27.1,7.1,29.41,NE,53,0.0,0.0,42,0.00,,SKC,0.00,VWS V14.00,2013-11-25 04:43:00,
2013-11-24 23:48:00,27.0,6.9,29.41,NE,53,0.0,0.0,42,0.00,,SKC,0.00,VWS V14.00,2013-11-25 04:48:00,
2013-11-24 23:53:00,27.0,6.9,29.41,NE,53,0.0,0.0,42,0.00,,SKC,0.00,VWS V14.00,2013-11-25 04:53:00,
2013-11-24 23:58:00,27.0,6.9,29.41,NE,54,0.0,0.0,42,0.00,,SKC,0.00,VWS V14.00,2013-11-25 04:58:00,